Regional Weather Roundup
Issued by NWS

Home | Current Version | Previous Version | Graphics & Text | Print | Product List | Glossary On
Versions: 1 2 3 4 5 6 7 8 9 10 11 12 13 14 15 16 17 18 19 20 21 22 23 24 25 26 27 28 29 30 31 32 33 34 35 36 37 38 39 40 41 42 43 44 45 46 47 48 49
000
ASUS45 KBOU 280507
RWRCO

WEATHER ROUNDUP FOR COLORADO
NATIONAL WEATHER SERVICE DENVER/BOULDER CO
1100 PM MDT SUN JUL 27 2014

NOTE: "FAIR" INDICATES FEW OR NO CLOUDS BELOW 12000 FEET WITH NO
SIGNIFICANT WEATHER AND/OR OBSTRUCTIONS TO VISIBILITY.

COZ001>005-013-030-031-280600-
...NORTHWEST COLORADO...

CITY           SKY/WX    TMP DP  RH WIND       PRES   REMARKS
CRAIG          PTCLDY    51  47  86 NW3       30.31R
HAYDEN         PTCLDY    70  41  35 E13       30.33S
MEEKER         MOCLDY    69  46  43 E3        30.32S
MOUNT WERNER   NOT AVBL
STEAMBOAT SPGS PTCLDY    67  45  45 CALM      30.37R
WALDEN         CLEAR     57  45  62 CALM      30.50R
$$

COZ006>008-011-280600-
...WEST CENTRAL VALLEYS...

CITY           SKY/WX    TMP DP  RH WIND       PRES   REMARKS
GRAND JUNCTION MOCLDY    78  48  34 E10       30.20F
MONTROSE       MOCLDY    71  53  52 S8        30.31F
EAGLE          PTCLDY    70  48  46 NE3       30.38S
RIFLE          MOCLDY    75  45  34 SE3       30.26R
DELTA          MOCLDY    75  56  51 S8        30.26S
NUCLA          MOCLDY    72  50  46 S18G25    30.39R
$$

COZ017>023-064>068-280600-
...SOUTHWEST COLORADO...

CITY           SKY/WX    TMP DP  RH WIND       PRES   REMARKS
DURANGO        CLOUDY    61  58  90 SW5       30.47S
CORTEZ         MOCLDY    67  58  72 NW6       30.40F
PAGOSA SPRINGS CLOUDY    62  53  72 SW3       30.52F
TELLURIDE      CLOUDY    63  45  51 E10G17    30.57S
WOLF CREEK PAS NOT AVBL
$$

COZ009-010-012-014-032>034-037-058>063-280600-
...CENTRAL COLORADO...

CITY           SKY/WX    TMP DP  RH WIND       PRES   REMARKS
ASPEN          MOCLDY    66  44  45 SE12      30.45F
BUENA VISTA    MOCLDY    57  51  82 CALM      30.55R
COPPER MTN     MOCLDY    54  39  58 S17       30.81S
BERTHOUD PASS  FAIR      41  28  60 SE18      30.86S
COTTONWOOD PAS CLOUDY    55  50  82 SE3       30.67R
GUNNISON       PTCLDY    61  46  59 N12       30.50F
KREMMLING      MOCLDY    63  43  48 S7        30.46S
LEADVILLE      CLOUDY    49  47  93 NE6       30.66S
MONARCH PASS   MOCLDY    48  41  76 SW12      30.90F
SALIDA         MOCLDY   N/A N/A N/A SW6       30.59S
SUNLIGHT       MOCLDY    59  41  51 CALM      30.71S
WILKERSON PASS NOT AVBL
$$

COZ069>075-280600-
...SAN LUIS VALLEY/SANGRE DE CRISTO MOUNTAINS...

CITY           SKY/WX    TMP DP  RH WIND       PRES   REMARKS
ALAMOSA        CLOUDY    60  53  77 SW3       30.49R
LA VETA PASS   CLOUDY    52  46  82 NE8       30.71R
SAGUACHE       PTCLDY    61  46  59 NE6       30.50F
$$

COZ035-036-038>040-280600-
...NORTHERN COLORADO FRONT RANGE...

CITY           SKY/WX    TMP DP  RH WIND       PRES   REMARKS
DENVER INTL AP MOCLDY    67  60  78 S15       30.36F
DMNS CITY PARK   N/A     70  57  64 S6G15     30.35F
AURORA         MOCLDY    68  58  71 S18       30.38F
FRONT RANGE AP NOT AVBL
ERIE MUNI ARPT MOCLDY    69  58  68 SW5       30.35S
BOULDER MUN AP MOCLDY    72  54  53 S6        30.36R
CENTENNIAL     MOCLDY    67  56  67 S13       30.41R
BROOMFIELD     NOT AVBL
FORT COLLINS   PTCLDY    70  57  64 S7        30.35R
LONGMONT       MOCLDY    72  60  65 CALM      30.36S
$$

COZ041-046-047-076>085-087-088-280600-
...PIKES PEAK/PALMER DIVIDE AND SOUTHERN FOOTHILLS...

CITY           SKY/WX    TMP DP  RH WIND       PRES   REMARKS
COLO. SPRINGS  LGT RAIN  63  61  93 CALM      30.48R
A. F. ACADEMY  CLOUDY    60  60  99 SE6       30.50R
ELLICOTT       TSTM      61  59  93 S7        30.48R
FALCON         CLOUDY    58  57  97 SW7       30.52R
FORT CARSON    DRIZZLE   63  61  94 NW5       30.45S
LIMON          CLOUDY    66  62  87 S5        30.39F
MONUMENT HILL  CLOUDY    59  54  82 S12       30.49S
TRINIDAD       CLOUDY    64  58  80 SE3       30.44R
$$

COZ042>045-048>051-090-091-280600-
...NORTHEAST COLORADO...

CITY           SKY/WX    TMP DP  RH WIND       PRES   REMARKS
GREELEY ARPT   MOCLDY    70  55  60 SE8       30.34R
AKRON          CLOUDY    71  47  42 SE12      30.36R
BURLINGTON     CLOUDY    70  49  47 S6        30.34R
WRAY             N/A     71  47  43 SE6       30.32R
STERLING       CLOUDY    77  52  41 SE7       30.31R
HOLYOKE        MOCLDY    64  55  72 SE3       30.32R
FORT MORGAN    CLOUDY    72  48  42 E6        30.35R
$$

COZ086-089-092>099-280600-
...SOUTHEAST COLORADO...

CITY           SKY/WX    TMP DP  RH WIND       PRES   REMARKS
PUEBLO         LGT RAIN  65  63  93 N14G23    30.38R
LA JUNTA       HVY RAIN  69  66  90 W13       30.35S FOG
LAMAR          CLOUDY    74  61  63 SE9       30.29R
SPRINGFIELD      N/A     69  59  70 SE6       30.35R
$$


USA.gov is the U.S. government's official web portal to all federal, state and local government web resources and services.